CAPE
0 0 0 0 0 0 0 0 0 0 0 0 0 0 0 0 0 0 2 2 2 1
0 0 0 0 0 0 0 0 0 0 0 0 0 0 0 0 0 0 0 0 1 0
0 0 0 0 0 0 0 0 0 0 0 0 0 0 1 8 10 2 3 2 3 4
0 0 0 0 0 0 0 0 0 0 0 0 0 0 3 6 7 1 0 0 0 0
0 0 0 0 0 0 0 0 0 0 0 0 0 2 0 0 0 0 0 0 0 0
0 0 0 0 0 0 0 0 0 1 4 2 0 0 0 0 0 0 0 0 0 0
0 0 0 0 0 0 0 0 1 1 5 0 0 0 0 0 0 0 0 0 0 0
3 10 0 0 0 0 0 0 1 5 2 0 0 0 0 0 0 0 0 0 0 0
0 0 0 0 0 0 0 0 0 0 0 0 0 0 0 0 0 0 0 0 0 0
0 0 0 0 0 0 0 0 0 0 0 0 0 0 0 0 0 0 0 0 0 0
0 0 0 0 0 0 0 0 0 0 0 0 0 0 0 0 0 1 1 0 0 0
0 0 0 0 0 0 0 0 0 0 0 0 0 0 0 0 1 2 2 1 3 3
0 0 0 0 0 0 0 0 0 0 0 0 0 0 0 2 3 1 1 2 5 2
0 0 0 0 0 0 0 0 0 0 0 0 0 0 0 1 2 4 5 5 2 2
CIN
-0 -0 -0 -0 -0 -0 -0 -0 -0 -0 -0 -0 -0 -0 -0 -0 -0 -0 -0 -0 -0 -0
-0 -0 -0 -0 -0 -0 -0 -0 -0 -0 -0 -0 -0 -0 -0 -0 -0 -0 -0 -0 -0 -0
-0 -0 -0 -0 -0 -0 -0 -0 -0 -0 -0 -0 -0 -0 -0 -0 -22 -9 -0 -0 -0 -0
-0 -0 -0 -0 -0 -0 -0 -0 -0 -0 -0 -0 -0 -0 -1 -6 -13 -4 -0 -0 -0 -0
-0 -0 -0 -0 -0 -0 -0 -0 -0 -0 -0 -0 -0 -2 -0 -0 -0 -0 -0 -0 -0 -0
-0 -0 -0 -0 -0 -0 -0 -0 -0 -0 -0 -0 -0 -0 -0 -0 -0 -0 -0 -0 -0 -0
-0 -0 -0 -0 -0 -5 -0 -0 -0 -0 -0 -0 -0 -0 -0 -0 -0 -0 -0 -0 -0 -0
-8 -0 -2 -0 -0 -0 -7 -0 -6 -0 -2 -0 -0 -0 -0 -0 -0 -0 -0 -0 -0 -0
-0 -0 -0 -0 -0 -0 -0 -0 -0 -0 -0 -0 -0 -0 -0 -0 -0 -0 -0 -0 -0 -0
-0 -0 -0 -0 -0 -0 -0 -0 -0 -0 -0 -0 -0 -0 -0 -0 -0 -0 -0 -0 -0 -0
-0 -0 -0 -0 -0 -0 -0 -0 -0 -0 -0 -0 -0 -0 -0 -0 -0 -1 -1 -0 -0 -0
-0 -0 -0 -0 -0 -0 -0 -0 -0 -0 -0 -0 -0 -0 -0 -0 -0 -1 -0 -0 -0 -0
-0 -0 -0 -0 -0 -0 -0 -0 -0 -0 -0 -0 -0 -0 -0 -0 -1 -2 -2 -1 -0 -0
-0 -0 -0 -0 -0 -0 -0 -0 -0 -0 -0 -0 -0 -0 -0 -1 -1 -1 -1 -1 -1 -1
Wind_Speed
41 43 46 46 48 49 48 43 36 33 32 31 28 27 26 26 26 27 27 27 27 28
41 44 46 48 47 46 42 35 31 32 32 30 28 28 28 28 26 25 24 25 26 27
43 44 47 48 48 45 37 31 31 31 29 30 29 29 27 26 25 24 25 27 29 30
45 46 47 45 43 37 32 30 29 28 29 31 31 29 27 26 25 27 28 28 29 31
43 44 44 41 38 35 34 30 28 28 32 33 31 29 28 29 29 30 32 32 33 35
42 41 40 37 37 36 34 33 32 32 32 33 32 32 31 31 33 33 34 34 34 34
40 38 38 38 37 35 33 32 31 32 30 28 30 32 33 34 34 34 34 33 34 35
38 36 38 36 35 33 32 31 30 31 30 30 31 32 35 34 35 35 36 36 37 37
36 37 38 37 36 33 33 32 31 32 32 33 33 34 33 35 36 37 38 40 40 40
36 36 36 35 34 34 33 32 33 32 32 33 34 36 37 39 39 40 40 41 40 40
35 35 35 35 34 33 32 33 34 33 34 35 35 37 39 39 38 38 39 39 38 37
33 34 34 34 33 32 33 33 33 34 36 36 37 37 39 39 38 38 39 37 35 34
31 32 32 32 32 32 32 33 33 35 34 35 36 38 38 38 38 39 38 36 35 33
28 30 31 31 31 32 32 31 33 34 34 34 35 36 37 38 36 36 37 35 35 33
Wind_Direction
333 331 330 329 328 326 325 325 327 329 331 332 334 335 334 329 326 325 321 316 311 305
334 332 330 329 329 328 328 328 330 330 331 332 333 333 331 325 320 320 320 315 308 304
333 333 332 331 330 330 331 332 332 332 333 333 333 333 332 329 326 323 318 313 307 301
333 333 333 334 335 337 338 337 337 337 336 335 332 333 331 329 325 321 320 317 312 307
336 337 338 339 341 341 339 342 342 340 334 330 329 327 326 325 322 320 318 317 314 310
338 340 341 342 342 341 339 338 338 336 334 332 329 326 322 321 318 318 318 317 315 313
338 340 341 339 337 337 339 339 339 337 335 334 329 324 321 320 319 319 319 318 315 312
340 340 340 342 343 343 342 341 339 337 336 334 330 326 323 323 321 319 317 315 313 312
343 342 342 342 342 343 342 341 341 339 335 332 330 329 328 324 321 318 315 312 311 311
344 345 345 346 345 344 344 344 343 342 339 335 332 328 324 320 317 314 313 312 312 312
346 346 347 347 347 347 347 345 343 341 339 335 332 329 326 322 320 317 315 314 314 313
348 348 348 349 348 348 346 345 344 342 339 336 333 331 328 325 322 319 317 317 316 315
349 350 351 350 349 349 348 346 345 343 342 340 336 334 331 327 323 319 318 316 314 315
353 353 352 352 352 350 349 349 347 345 344 342 340 337 335 331 329 323 315 313 311 309